Meteo pe oră la Dacbogi

Astăzi, 12 Aprilie, Luni

Timp Temperatura Precipitaţii Vânt Presiune Umiditate
00:00 +8°C° 0 mm 3 m/s 749 mmHg 85%
01:00 +8°C° 0 mm 3 m/s 749 mmHg 87%
02:00 +7°C° 0 mm 4 m/s 749 mmHg 88%
03:00 +6°C° 0 mm 4 m/s 750 mmHg 88%
04:00 +6°C° 0 mm 5 m/s 750 mmHg 89%
05:00 +6°C° 0 mm 5 m/s 751 mmHg 88%
06:00 +5°C° 0 mm 5 m/s 752 mmHg 87%
07:00 +5°C° 0 mm 5 m/s 752 mmHg 85%
08:00 +3°C° 0.4 mm 5 m/s 753 mmHg 87%
09:00 +2°C° 0.4 mm 5 m/s 754 mmHg 89%
10:00 +1°C° 0.4 mm 5 m/s 754 mmHg 91%
11:00 +1°C° 0.8 mm 5 m/s 755 mmHg 92%
12:00 +1°C° 0.8 mm 5 m/s 755 mmHg 93%
13:00 +1°C° 0.8 mm 4 m/s 756 mmHg 94%
14:00 +1°C° 0.3 mm 4 m/s 756 mmHg 90%
15:00 +3°C° 0.3 mm 4 m/s 756 mmHg 87%
16:00 +3°C° 0.3 mm 4 m/s 756 mmHg 85%
17:00 +3°C° 0.2 mm 4 m/s 756 mmHg 85%
18:00 +3°C° 0.2 mm 3 m/s 757 mmHg 86%
19:00 +3°C° 0.2 mm 3 m/s 757 mmHg 87%
20:00 +3°C° 0 mm 3 m/s 757 mmHg 87%
21:00 +4°C° 0 mm 2 m/s 757 mmHg 86%
22:00 +3°C° 0 mm 2 m/s 758 mmHg 86%
23:00 +3°C° 0 mm 2 m/s 758 mmHg 86%

Mâine, 13 Aprilie, Marţi

Timp Temperatura Precipitaţii Vânt Presiune Umiditate
00:00 +3°C° 0 mm 2 m/s 758 mmHg 85%
01:00 +3°C° 0 mm 2 m/s 758 mmHg 85%
02:00 +3°C° 0 mm 2 m/s 758 mmHg 85%
03:00 +3°C° 0 mm 2 m/s 758 mmHg 84%
04:00 +4°C° 0 mm 1 m/s 759 mmHg 83%
05:00 +3°C° 0 mm 2 m/s 759 mmHg 82%
06:00 +3°C° 0 mm 2 m/s 759 mmHg 80%
07:00 +4°C° 0 mm 2 m/s 759 mmHg 78%
08:00 +4°C° 0 mm 3 m/s 759 mmHg 70%
09:00 +5°C° 0 mm 3 m/s 759 mmHg 62%
10:00 +6°C° 0 mm 4 m/s 760 mmHg 54%
11:00 +7°C° 0 mm 4 m/s 759 mmHg 49%
12:00 +7°C° 0 mm 4 m/s 759 mmHg 43%
13:00 +8°C° 0 mm 4 m/s 759 mmHg 37%
14:00 +8°C° 0 mm 4 m/s 759 mmHg 39%
15:00 +8°C° 0 mm 4 m/s 758 mmHg 40%
16:00 +8°C° 0 mm 4 m/s 758 mmHg 41%
17:00 +8°C° 0 mm 3 m/s 758 mmHg 45%
18:00 +7°C° 0 mm 3 m/s 758 mmHg 50%
19:00 +5°C° 0 mm 3 m/s 758 mmHg 54%
20:00 +4°C° 0 mm 3 m/s 759 mmHg 58%
21:00 +4°C° 0 mm 3 m/s 759 mmHg 63%
22:00 +3°C° 0 mm 3 m/s 759 mmHg 67%
23:00 +3°C° 0 mm 3 m/s 759 mmHg 69%

Poimâine, 14 Aprilie, Miercuri

Timp Temperatura Precipitaţii Vânt Presiune Umiditate
00:00 +2°C° 0 mm 3 m/s 759 mmHg 70%
01:00 +2°C° 0 mm 3 m/s 758 mmHg 72%
02:00 +2°C° 0 mm 3 m/s 758 mmHg 73%
03:00 +1°C° 0 mm 3 m/s 758 mmHg 74%
04:00 +1°C° 0 mm 3 m/s 758 mmHg 75%
05:00 +1°C° 0 mm 3 m/s 758 mmHg 75%
06:00 +1°C° 0 mm 4 m/s 759 mmHg 74%
07:00 +1°C° 0 mm 4 m/s 759 mmHg 73%
08:00 +2°C° 0 mm 5 m/s 759 mmHg 69%
09:00 +3°C° 0 mm 5 m/s 759 mmHg 64%
10:00 +5°C° 0 mm 5 m/s 759 mmHg 60%
11:00 +6°C° 0 mm 5 m/s 758 mmHg 56%
12:00 +6°C° 0 mm 5 m/s 758 mmHg 52%
13:00 +7°C° 0 mm 5 m/s 757 mmHg 48%
14:00 +7°C° 0 mm 5 m/s 757 mmHg 49%
15:00 +7°C° 0 mm 5 m/s 757 mmHg 50%
16:00 +7°C° 0 mm 5 m/s 757 mmHg 51%
17:00 +6°C° 0.1 mm 4 m/s 757 mmHg 55%
18:00 +6°C° 0.1 mm 4 m/s 757 mmHg 60%
19:00 +5°C° 0.1 mm 4 m/s 757 mmHg 64%
20:00 +4°C° 0.1 mm 3 m/s 757 mmHg 67%
21:00 +4°C° 0.1 mm 3 m/s 757 mmHg 71%
22:00 +3°C° 0.1 mm 3 m/s 757 mmHg 74%
23:00 +3°C° 0 mm 3 m/s 757 mmHg 73%

15 Aprilie, Joi

Timp Temperatura Precipitaţii Vânt Presiune Umiditate
00:00 +2°C° 0 mm 3 m/s 757 mmHg 72%
01:00 +1°C° 0 mm 4 m/s 757 mmHg 71%
02:00 0°C° 0 mm 4 m/s 757 mmHg 71%
03:00 0°C° 0 mm 4 m/s 757 mmHg 70%
04:00 0°C° 0 mm 4 m/s 757 mmHg 70%
05:00 0°C° 0 mm 4 m/s 757 mmHg 69%
06:00 0°C° 0 mm 5 m/s 757 mmHg 69%
07:00 0°C° 0 mm 5 m/s 758 mmHg 68%
08:00 +1°C° 0.1 mm 5 m/s 758 mmHg 70%
09:00 +1°C° 0.1 mm 6 m/s 758 mmHg 73%
10:00 +2°C° 0.1 mm 6 m/s 758 mmHg 75%
11:00 +2°C° 0.4 mm 6 m/s 757 mmHg 79%
12:00 +2°C° 0.4 mm 6 m/s 757 mmHg 83%
13:00 +2°C° 0.4 mm 6 m/s 757 mmHg 87%
14:00 +3°C° 0.3 mm 5 m/s 757 mmHg 85%
15:00 +3°C° 0.3 mm 5 m/s 757 mmHg 82%
16:00 +5°C° 0.3 mm 4 m/s 757 mmHg 80%
17:00 +4°C° 0.2 mm 4 m/s 757 mmHg 80%
18:00 +4°C° 0.2 mm 4 m/s 757 mmHg 81%
19:00 +4°C° 0.2 mm 4 m/s 757 mmHg 82%
20:00 +3°C° 0.1 mm 4 m/s 757 mmHg 84%
21:00 +3°C° 0.1 mm 4 m/s 758 mmHg 85%
22:00 +2°C° 0.1 mm 5 m/s 758 mmHg 87%
23:00 +3°C° 0.1 mm 4 m/s 758 mmHg 88%

16 Aprilie, Vineri

Timp Temperatura Precipitaţii Vânt Presiune Umiditate
00:00 +1°C° 0.1 mm 4 m/s 758 mmHg 89%
01:00 +1°C° 0.1 mm 4 m/s 758 mmHg 89%
02:00 +1°C° 0.1 mm 4 m/s 758 mmHg 88%
03:00 +1°C° 0.1 mm 4 m/s 758 mmHg 86%
04:00 +2°C° 0.1 mm 3 m/s 758 mmHg 84%
05:00 +2°C° 0 mm 3 m/s 758 mmHg 83%
06:00 +2°C° 0 mm 3 m/s 758 mmHg 82%
07:00 +2°C° 0 mm 3 m/s 758 mmHg 81%
08:00 +3°C° 0 mm 3 m/s 758 mmHg 76%
09:00 +5°C° 0 mm 3 m/s 758 mmHg 71%
10:00 +7°C° 0 mm 3 m/s 759 mmHg 66%
11:00 +6°C° 0 mm 4 m/s 759 mmHg 67%
12:00 +6°C° 0 mm 4 m/s 759 mmHg 67%
13:00 +7°C° 0 mm 4 m/s 759 mmHg 68%
14:00 +6°C° 0 mm 4 m/s 759 mmHg 73%
15:00 +6°C° 0 mm 4 m/s 759 mmHg 77%
16:00 +5°C° 0 mm 4 m/s 759 mmHg 81%
17:00 +5°C° 0 mm 3 m/s 759 mmHg 85%
18:00 +4°C° 0 mm 3 m/s 759 mmHg 89%
19:00 +3°C° 0 mm 3 m/s 759 mmHg 92%
20:00 +3°C° 0 mm 3 m/s 760 mmHg 93%
21:00 +4°C° 0 mm 2 m/s 760 mmHg 94%
22:00 +3°C° 0 mm 2 m/s 760 mmHg 95%
23:00 +3°C° 0 mm 2 m/s 760 mmHg 95%

17 Aprilie, Sâmbătă

Timp Temperatura Precipitaţii Vânt Presiune Umiditate
00:00 +3°C° 0 mm 2 m/s 760 mmHg 96%
01:00 +3°C° 0 mm 2 m/s 760 mmHg 96%
02:00 +3°C° 0 mm 2 m/s 760 mmHg 96%
03:00 +4°C° 0 mm 2 m/s 760 mmHg 96%
04:00 +4°C° 0 mm 2 m/s 761 mmHg 96%
05:00 +4°C° 0 mm 2 m/s 761 mmHg 95%
06:00 +4°C° 0 mm 2 m/s 761 mmHg 94%
07:00 +4°C° 0 mm 2 m/s 761 mmHg 92%
08:00 +4°C° 0 mm 3 m/s 761 mmHg 91%
09:00 +5°C° 0 mm 3 m/s 761 mmHg 90%
10:00 +5°C° 0 mm 3 m/s 761 mmHg 89%
11:00 +6°C° 0 mm 4 m/s 761 mmHg 87%
12:00 +6°C° 0 mm 4 m/s 761 mmHg 86%
13:00 +7°C° 0 mm 4 m/s 761 mmHg 84%
14:00 +8°C° 0 mm 4 m/s 761 mmHg 82%
15:00 +9°C° 0 mm 3 m/s 760 mmHg 80%
16:00 +10°C° 0 mm 3 m/s 760 mmHg 78%
17:00 +10°C° 0 mm 3 m/s 760 mmHg 79%
18:00 +9°C° 0 mm 3 m/s 760 mmHg 80%
19:00 +8°C° 0 mm 4 m/s 760 mmHg 82%
20:00 +8°C° 0 mm 3 m/s 760 mmHg 83%
21:00 +8°C° 0 mm 3 m/s 761 mmHg 84%
22:00 +7°C° 0 mm 3 m/s 761 mmHg 85%
23:00 +7°C° 0 mm 3 m/s 761 mmHg 86%
Arată mai mult

Formular de consimțământ

Meteoprog și furnizorii noștri de servicii pot stoca și accesa date personale, precum cookies, identificatori de dispozitiv sau alte tehnologii similare pe dispozitivul dumneavoastră și procesa astfel de date pentru a personaliza conținutul și reclamele, dar și pentru a oferi caracteristici de social media și pentru a analiza traficul.

  • Stocarea și/sau accesarea informațiilor pe dispozitivul dumneavoastră

    Cookies, identificatori de dispozitiv sau alte informații pot fi stocate sau accesate pe dispozitiv în scopurile indicate mai sus.

  • Reclame și conținut personalizat, evaluarea reclamelor și a conținutului, informații despre audiențe și dezvoltarea produselor

    Reclamele și conținutul pot fi personalizate pe baza unui profil. Pot fi adăugate date suplimentare pentru a personaliza mai bine reclamele și conținutul. Performanța reclamelor și conținutului poate fi măsurată. Pot fi obținute informații despre utilizatorii care au văzut reclamele și conținutul. Aceste date pot fi utilizate pentru a dezvolta sau îmbunătăți experiența utilizatorilor, sistemele și software-ul.

Dând clic pe ‘Sunt de acord’, permiteți utilizarea cookie-urilor menționate, a identificatorilor de dispozitiv, balizelor web sau altor tehnologii similare. Setările pot fi modificate din browser-ul dispozitivului dumneavoastră.

În anumite scopuri, interesele legitime pot prima asupra consimțământului. Puteți citi mai multe informații în acest sens în Politica privind Confidențialitatea Datelor și Cookie.